Location: Catacaguana
(10.4120°N, 66.7591°W)
Time: 04:24:45
(UTC+00:00)

Ariane H10 - Pass Details

Date: 27 May 2022
Orbit: 250 x 22706 km, 3.8° (Epoch: 24 June)

Event Time Altitude Azimuth Distance (km) Brightness Sun altitude
Exits shadow 09:06:24 18° 221° (SW) 1,604 4.1 -13.9°
Maximum altitude 09:09:13 39° 159° (SSE) 1,557 4.5 -13.2°
Drops below altitude 10° 09:24:24 10° 96° (E) 7,464 9.1 -9.8°
Sets 09:40:43 0° 91° (E) 12,762 10.6 -6.2°
